Theta_e
310 310 310 310 311 311 311 313 315 316 315 314 315 315 317 317 318 319 320 321 320 319 319 318 319 320 323 323 323 321 314 315 316 326 326 334 330 340 338 338 335 334 338 344 345
310 310 310 311 312 311 312 314 316 316 315 315 315 316 318 319 319 321 321 319 319 319 319 321 323 323 323 324 324 320 314 319 318 320 322 326 331 335 337 336 339 343 345 345 344
310 309 310 312 312 312 314 315 316 315 315 315 316 317 318 318 319 321 319 319 319 319 320 321 322 322 324 323 322 318 317 318 322 324 329 326 327 334 335 331 339 340 343 344 342
309 310 311 312 312 312 315 316 316 315 315 315 316 318 318 318 319 319 319 319 320 320 321 320 321 321 320 319 320 319 318 320 322 321 325 323 325 328 330 333 337 338 339 340 340
310 311 311 312 312 312 315 316 316 315 315 315 317 318 318 319 320 318 319 319 320 321 321 321 321 321 321 318 319 319 319 319 322 322 323 323 327 330 330 336 336 335 336 339 339
311 311 311 312 312 313 315 316 316 316 316 316 317 318 318 317 321 320 320 321 321 321 321 322 322 321 320 319 319 321 319 319 321 322 322 327 330 331 331 336 340 337 340 339 339
311 311 312 312 312 313 315 316 316 316 316 316 317 317 317 320 322 320 320 321 322 322 322 322 322 322 321 319 321 321 319 317 318 320 320 322 320 330 331 331 338 341 342 343 339
312 312 312 313 313 313 315 316 316 317 317 317 317 317 321 324 320 321 321 323 323 323 322 323 323 322 321 321 319 317 315 317 317 319 321 319 321 330 330 330 332 336 341 341 338
312 312 312 312 313 313 315 316 316 317 317 318 318 319 323 321 322 322 322 322 323 323 323 323 323 322 322 317 316 315 318 319 319 317 318 319 320 328 330 330 331 331 334 336 336
312 312 311 312 312 313 315 316 316 317 318 318 318 319 322 322 322 322 322 323 323 323 323 324 324 317 314 315 319 320 321 320 320 319 318 322 321 323 330 330 330 331 331 330 329
311 311 311 311 312 313 314 318 323 318 322 321 321 322 323 322 322 323 323 324 324 324 320 321 318 320 320 319 319 318 319 321 322 319 320 320 321 323 327 329 329 330 331 330 328
310 311 311 313 313 318 323 323 324 324 323 323 323 323 323 322 321 323 324 324 324 322 320 318 321 321 318 318 318 318 319 318 318 318 320 323 323 320 323 326 328 329 330 330 329
310 311 314 314 318 323 324 324 324 324 322 323 323 323 323 322 322 324 324 324 323 321 319 319 322 322 321 321 321 319 320 319 318 316 316 317 315 320 321 324 327 329 329 329 325
311 312 315 317 322 324 324 324 323 323 318 319 326 324 324 322 323 324 324 325 324 323 321 321 322 321 321 322 320 322 320 320 319 317 316 314 314 313 319 321 325 328 328 327 325
313 313 316 319 323 325 325 323 323 324 320 328 323 322 322 323 323 324 325 326 324 324 322 324 321 322 321 322 321 320 320 318 318 317 315 315 313 316 320 321 320 320 323 324 323
318 313 317 322 324 325 325 323 323 319 319 324 322 322 321 323 324 324 324 325 325 324 323 323 322 322 322 321 319 317 316 312 313 311 314 316 316 320 320 321 319 320 321 320 320
319 315 317 321 324 325 325 323 317 320 321 325 323 322 320 321 323 323 323 323 323 325 324 322 322 322 323 323 319 314 312 313 313 317 316 314 321 319 319 318 319 320 319 319 319
313 317 315 320 324 323 324 318 322 321 325 326 324 321 322 321 323 323 323 325 323 322 321 322 323 323 323 321 321 316 313 313 317 317 315 316 323 321 318 319 319 318 319 318 315
317 318 317 316 322 324 325 320 318 323 327 328 324 322 322 322 322 324 325 325 324 322 323 321 324 322 320 319 318 317 316 314 315 316 316 316 321 319 319 317 316 318 317 315 313
317 319 324 316 323 324 321 322 325 325 327 326 328 328 327 326 324 322 326 326 324 322 321 322 322 323 322 320 318 315 313 315 314 322 320 315 318 320 320 317 315 314 313 313 313
316 318 329 324 325 324 317 320 324 324 326 327 327 327 327 326 325 326 327 324 324 323 322 321 319 320 322 320 319 316 318 312 313 314 316 317 316 313 317 315 312 313 313 313 313
314 314 325 327 324 319 319 322 325 327 326 325 325 326 326 324 324 327 327 325 323 322 322 322 319 322 322 321 319 315 315 312 314 315 315 315 317 312 312 313 313 313 313 313 313
311 314 321 326 322 319 320 323 325 326 326 325 326 325 324 323 324 326 325 323 324 324 323 320 316 316 313 317 319 320 320 312 312 311 316 315 315 313 314 314 314 313 313 313 313
313 318 323 325 322 320 322 324 325 326 325 325 324 323 323 323 322 324 324 323 323 321 322 320 316 316 313 315 320 321 320 318 315 313 316 315 316 314 313 313 313 313 313 313 312
322 320 318 317 318 317 318 323 324 323 324 324 323 323 322 322 322 322 322 322 321 319 319 313 315 318 318 319 320 320 320 319 316 315 316 316 316 314 312 313 313 313 313 313 312
321 319 318 318 318 317 315 318 319 321 322 323 322 322 322 321 321 323 321 320 321 319 318 314 318 321 321 321 322 322 321 320 319 317 316 315 316 313 314 315 314 314 312 311 311
317 318 318 315 317 316 317 319 320 319 322 323 323 321 321 322 323 323 323 323 322 317 316 317 316 317 319 320 320 314 318 319 318 316 314 314 312 314 314 314 314 312 310 311 311
Wind_Speed
3 3 4 5 5 5 5 5 4 1 2 6 8 8 7 6 4 3 5 3 3 4 3 1 4 7 11 7 6 1 4 3 4 4 4 17 5 9 11 13 10 5 20 23 25
3 4 5 5 5 6 6 6 3 1 5 8 8 7 6 6 11 10 3 2 1 5 6 7 8 11 7 4 3 4 3 4 5 3 6 9 15 14 6 19 14 28 28 27 24
4 5 6 6 6 6 7 5 2 2 6 8 7 7 7 12 11 3 2 4 4 5 6 9 11 10 4 4 3 6 6 4 5 15 19 15 11 6 16 6 18 33 29 22 22
4 6 6 6 6 7 7 5 2 3 6 7 6 6 9 12 1 8 4 3 4 5 8 13 12 9 3 3 3 1 6 6 13 13 24 10 11 9 11 11 31 30 28 25 20
6 6 5 5 6 7 7 5 2 4 6 7 6 7 10 11 5 6 8 3 4 6 10 12 10 8 2 7 4 2 4 10 22 16 26 25 16 17 23 31 32 31 28 26 24
5 5 5 5 6 7 7 5 3 4 5 6 6 8 9 5 4 4 4 7 10 13 11 11 9 13 4 5 3 3 3 9 20 22 19 24 21 12 14 31 35 33 31 29 27
4 4 4 4 5 6 6 5 3 4 4 6 7 9 13 6 6 4 6 10 13 9 13 12 12 11 9 5 9 1 5 2 4 6 6 25 6 9 27 27 34 33 32 29 26
4 4 3 3 4 5 6 5 4 4 4 5 6 9 7 5 6 3 5 7 6 5 10 7 10 10 2 5 6 5 6 3 5 9 7 3 5 18 25 28 28 30 33 31 27
3 3 2 2 3 4 5 5 4 3 4 5 7 6 6 2 2 1 2 5 2 4 8 9 9 2 2 4 5 8 2 4 8 4 1 2 6 20 27 25 29 25 31 30 29
3 2 2 2 2 2 3 3 4 4 5 7 9 6 2 9 3 3 3 5 6 10 7 4 3 4 5 6 1 1 3 2 4 6 3 1 5 21 29 25 28 29 28 28 25
3 3 3 2 1 2 2 0 2 1 6 8 7 11 18 8 7 3 4 5 5 5 2 5 6 4 4 3 5 6 5 4 2 5 2 4 7 16 22 16 24 26 29 26 20
2 3 3 3 4 4 5 8 8 6 7 10 11 16 12 10 7 4 4 3 4 3 2 6 3 3 8 7 8 8 4 3 5 3 3 1 5 6 14 11 25 31 27 24 22
2 3 4 6 5 3 6 9 5 5 2 8 9 10 8 5 4 0 2 2 5 7 4 6 1 6 7 5 7 3 4 3 4 6 3 2 6 2 4 9 13 21 22 21 16
1 4 5 7 3 6 9 4 4 3 4 6 4 7 10 5 1 2 1 3 5 2 2 4 1 6 5 4 3 1 3 2 4 4 2 4 4 5 5 4 10 20 18 18 15
2 5 7 6 4 9 8 3 4 1 3 2 3 2 7 6 7 2 3 5 4 3 6 4 5 2 7 3 0 4 1 3 2 2 3 6 3 6 2 4 3 2 11 10 8
5 5 9 4 4 7 4 2 2 6 3 3 5 4 5 2 4 5 1 4 3 4 4 2 1 3 4 2 3 2 4 6 4 3 2 2 3 5 1 2 3 6 10 9 8
7 5 11 6 1 5 4 1 5 3 4 2 4 2 5 4 3 3 2 3 2 3 3 7 4 5 1 2 2 8 7 4 5 5 4 6 4 7 4 3 8 13 12 10 8
10 4 10 12 1 4 2 5 1 4 5 5 4 4 6 5 6 5 4 2 5 4 3 3 4 3 2 2 2 3 5 5 2 1 5 4 3 5 4 1 5 9 11 7 4
12 5 6 9 6 2 1 3 6 5 4 5 4 4 2 2 5 4 3 2 1 1 5 3 2 3 2 2 3 2 2 4 5 2 2 3 3 5 2 3 6 8 6 4 4
14 7 1 8 8 1 4 4 4 5 5 2 3 2 3 4 2 5 2 2 2 4 2 3 1 2 3 3 3 2 5 2 3 0 3 4 4 5 6 7 5 6 5 3 3
13 4 2 10 7 1 3 6 5 12 9 2 3 2 1 3 4 3 1 2 1 2 6 3 4 5 2 2 4 3 1 6 4 4 5 2 5 4 6 5 7 4 1 1 1
7 3 5 16 3 2 2 5 4 11 20 3 5 3 2 2 4 2 4 3 1 3 3 2 5 2 7 6 3 4 4 5 5 4 1 3 6 5 5 9 9 3 3 1 3
12 5 3 10 2 2 5 4 7 4 5 1 2 2 1 3 4 2 2 2 1 3 5 5 2 3 8 6 6 4 3 5 4 3 5 5 6 1 5 6 3 1 4 3 6
5 3 3 2 5 2 3 5 5 4 1 3 4 4 4 2 2 5 3 4 3 4 5 4 3 6 6 5 2 4 4 1 5 3 3 6 3 5 3 3 1 3 6 5 4
4 1 2 3 4 5 2 3 5 7 4 2 2 4 6 3 2 4 2 2 5 4 2 4 3 4 6 7 4 5 8 5 6 6 5 7 7 6 7 5 5 1 3 3 7
2 2 2 2 6 4 5 3 4 6 3 3 3 4 4 6 7 7 6 5 5 2 3 2 1 2 4 4 3 6 10 10 7 2 3 4 3 4 4 1 5 4 5 7 7
1 1 2 3 3 2 1 4 2 8 6 7 8 6 5 5 9 8 8 11 11 9 5 4 5 3 4 4 7 5 3 1 1 1 5 5 6 5 2 7 9 6 4 7 10
Wind_Direction
225 218 199 180 168 162 157 154 149 144 346 346 348 348 356 356 344 275 231 208 279 305 333 287 325 336 332 322 348 211 54 308 266 190 125 167 123 163 184 75 80 114 151 137 136
219 204 184 172 166 161 158 156 159 345 350 352 353 351 350 340 318 291 223 191 353 19 34 28 13 345 320 264 250 101 100 263 203 273 137 157 135 156 168 106 85 109 132 133 139
203 189 176 171 169 165 163 165 182 338 352 354 356 343 337 333 332 7 89 85 56 40 19 5 350 345 311 312 225 179 189 217 343 129 127 122 125 144 133 72 156 144 146 150 164
187 174 172 171 173 170 170 178 225 334 352 358 351 331 330 332 13 9 92 76 51 14 353 342 333 351 319 326 289 199 235 165 165 144 126 114 113 63 104 129 136 139 145 156 155
165 166 170 173 177 177 179 190 251 326 353 358 338 327 337 329 354 60 97 83 11 341 344 347 359 358 339 323 350 185 58 147 170 160 122 118 102 113 109 131 133 135 141 140 137
153 164 170 176 181 186 190 203 245 315 352 352 329 322 328 322 356 3 7 342 337 330 332 351 354 349 297 324 46 4 184 145 165 146 135 114 126 105 136 136 132 136 133 137 139
154 163 166 177 187 195 201 216 241 303 339 341 329 321 314 278 308 307 322 338 329 304 306 339 332 335 322 322 344 20 130 67 198 168 145 130 81 144 148 139 131 131 134 136 134
144 152 162 178 193 204 213 225 239 281 314 320 318 318 283 297 279 279 316 351 339 308 307 319 325 314 257 311 6 48 52 46 225 187 192 45 146 153 155 143 131 137 138 139 139
157 160 166 183 199 213 222 229 244 259 286 292 305 314 291 334 143 224 320 340 350 320 353 282 318 357 33 63 16 16 357 355 346 37 107 64 141 169 166 160 143 150 143 141 141
199 191 186 191 203 223 233 250 267 265 270 284 274 300 331 326 255 330 255 330 341 330 343 11 13 47 29 58 155 28 37 57 51 322 73 27 131 162 173 171 154 155 153 149 146
214 206 193 185 175 128 114 29 334 163 299 260 290 288 299 324 285 331 309 322 325 334 27 16 61 58 332 105 102 117 74 20 308 330 76 295 167 175 169 164 152 159 160 157 154
184 187 175 149 131 107 53 54 38 353 308 288 274 276 279 290 296 308 323 23 32 323 33 26 56 90 113 95 86 51 59 341 290 322 17 113 254 105 163 180 170 164 163 165 162
143 171 165 141 123 71 17 12 341 334 282 286 256 250 258 235 224 224 274 78 58 19 24 118 115 132 95 55 63 45 101 311 257 334 358 18 319 98 54 142 167 168 168 169 168
115 175 171 144 109 16 28 49 336 296 60 278 222 230 223 204 62 170 66 117 40 62 72 63 17 105 92 91 121 73 211 271 289 40 261 34 278 11 346 84 152 180 181 179 183
18 186 178 172 58 44 12 56 335 291 44 242 209 166 186 166 153 180 120 101 118 18 86 272 169 60 60 345 118 219 270 322 332 184 91 340 86 283 32 65 62 116 179 186 188
356 204 204 200 54 21 30 29 0 45 268 323 186 170 120 168 173 156 97 99 107 88 42 340 31 100 152 107 64 28 11 33 54 71 60 294 150 313 287 181 150 168 169 157 160
347 232 219 212 81 16 321 328 45 129 322 221 220 163 161 147 204 154 144 27 120 70 357 358 350 319 68 35 10 54 47 346 356 8 220 316 52 238 300 185 167 156 160 154 138
349 288 229 224 195 349 336 54 160 245 259 289 240 122 182 152 221 181 100 65 30 76 100 138 329 350 355 138 187 62 133 148 268 306 282 328 156 253 215 195 151 155 153 129 71
350 310 256 224 201 299 105 82 211 217 271 325 8 88 304 262 149 113 74 110 17 70 137 129 282 324 38 62 99 155 71 175 106 22 27 281 302 339 188 125 113 139 116 78 6
346 337 328 175 191 252 78 228 236 228 328 68 86 45 42 318 122 92 73 353 88 27 168 184 55 328 308 44 41 100 159 53 18 251 298 290 279 232 229 204 151 136 115 62 83
343 345 122 189 196 192 156 234 271 280 323 177 154 110 122 48 43 73 60 359 37 32 78 111 111 289 344 170 184 345 13 54 112 131 180 273 269 245 237 180 161 146 128 23 18
1 352 347 176 119 64 181 204 280 293 310 280 106 109 105 58 44 89 156 182 166 180 70 34 132 218 236 284 296 177 176 126 118 244 210 164 270 341 97 130 139 124 346 190 332
342 303 6 194 147 281 292 287 279 281 233 142 96 121 93 126 98 113 158 66 92 88 156 182 24 19 349 354 2 44 5 109 117 81 203 140 266 76 111 113 122 0 247 256 303
345 4 343 94 78 107 353 293 297 312 300 113 120 95 90 102 70 162 129 22 44 85 101 110 116 150 193 221 200 293 294 323 141 121 227 226 251 198 191 192 184 193 189 296 270
1 60 31 334 347 342 311 296 337 352 353 124 45 158 150 170 136 125 117 106 49 129 77 100 164 171 240 238 250 255 275 260 198 208 180 258 204 184 185 182 173 205 286 270 293
359 29 346 290 311 345 8 20 7 319 279 304 178 199 152 162 180 189 141 179 191 189 109 28 201 165 284 304 284 266 267 260 259 202 204 140 241 156 140 76 216 270 251 274 276
16 33 305 324 348 65 337 306 332 336 294 276 246 121 159 227 206 216 178 182 178 157 158 126 128 92 273 336 332 345 252 271 320 118 139 175 233 169 211 244 230 227 263 320 329